Find Starlink 11365

NORAD ID: 62886 Int'l Des: 2025-024 Owner: SPXS Country: US Constellation: starlink operational
別名: STARLINK-11365 [DTC] celestrak
LEOCIRCULAR

現在のビュー

3D地球を読み込み中...

About Starlink 11365

Starlink 11365 (NORAD 62886) is a starlink constellation satellite (v2 mini d2c) launched Feb 4, 2025 by SPXS of US. It operates in LEO, CIRCULAR orbit with a mass of 960.00 kg.

次回通過

Passes for default location (London). Set your location on the main map for personalized predictions.

高度履歴

Loading altitude history...

軌道要素

1 62886U 25024H 26263.91324239 .00126167 00000-0 96715-3 0 9999
2 62886 43.0007 84.4022 0000645 4.8689 355.2185 15.70956555 94174
Epoch: Sep 20, 2026 • Age: 36 hours

現在のステータス

高度 367.4 km
遠地点 / 近地点 N/A
速度 7.69 km/s
衛星直下点 -40.71°S, 145.97°W
打ち上げ日 Feb 4, 2025
運用期間 1.6 years
タイプ internet

技術仕様

分類 Payload
質量 960.00 kg
乾燥質量 910.00 kg
長さ 0.30 m
スパン 29.00 m
形状 ? Box + pan
製造者 SPXS
バスタイプ Starlink V2MD
フェーズステータス In Orbit
所有者/国 SPXS/US

Most Searched